This demonstration page uses our WeatherBlox Daily Observations layout. Learn more.

38.89511, -77.03637

Hourly Observations for February 6, 2015

Temp ( °F °C ) Dew Point ( °F °C ) Humidity (%) Winds ( mph kmh ) Pressure ( in mb ) Visibility ( mi km ) Precip ( " mm )
12:52 am 00:52 Clear 20 -6.7 -1 -18.3 40 40 NNW 12 19 30.36 1028 10 16.0934 0 0
1:52 am 01:52 Clear 20 -6.7 -2 -18.9 38 38 NNW 9 15 30.37 1028 10 16.0934 0 0
2:52 am 02:52 Clear 19 -7.2 -1 -18.3 41 41 N 8 13 30.37 1028 10 16.0934 0 0
3:52 am 03:52 Clear 19 -7.2 -1 -18.3 41 41 NNW 6 9 30.35 1028 10 16.0934 0 0
4:52 am 04:52 Clear 19 -7.2 -1 -18.3 41 41 N 3 6 30.35 1028 10 16.0934 0 0
5:52 am 05:52 Clear 20 -6.7 -3 -19.4 36 36 Calm 30.36 1028 10 16.0934 0 0
6:52 am 06:52 Mostly Clear 18 -7.8 -1 -18.3 43 43 SW 3 6 30.36 1028 10 16.0934 0 0
7:52 am 07:52 Mostly Cloudy 20 -6.7 0 -17.8 41 41 SW 8 13 30.36 1028 10 16.0934 0 0
8:52 am 08:52 Mostly Cloudy 22 -5.6 0 -17.8 38 38 SW 12 19 30.35 1028 10 16.0934 0 0
9:52 am 09:52 Mostly Cloudy 24 -4.4 4 -15.6 42 42 SSW 14 22 30.33 1027 10 16.0934 0 0
10:52 am 10:52 Mostly Cloudy 27 -2.8 1 -17.2 32 32 SW 10 17 30.32 1027 10 16.0934 0 0
11:52 am 11:52 Mostly Cloudy 31 -0.6 1 -17.2 28 28 SW 13 20 30.27 1025 10 16.0934 0 0
12:52 pm 12:52 Cloudy 32 0 4 -15.6 30 30 SSW 9 15 30.24 1024 10 16.0934 0 0
1:52 pm 13:52 Cloudy 34 1.1 4 -15.6 28 28 SW 10 17 30.21 1023 10 16.0934 0 0
2:52 pm 14:52 Cloudy 36 2.2 4 -15.6 26 26 SSW 8 13 30.2 1023 10 16.0934 0 0
3:52 pm 15:52 Mostly Cloudy 36 2.2 4 -15.6 26 26 SSW 12 19 30.19 1022 10 16.0934 0 0
4:52 pm 16:52 Mostly Cloudy 38 3.3 4 -15.6 24 24 SSW 8 13 30.19 1022 10 16.0934 0 0
5:52 pm 17:52 Partly Cloudy 36 2.2 5 -15 27 27 SSW 9 15 30.18 1022 10 16.0934 0 0
6:52 pm 18:52 Mostly Clear 34 1.1 6 -14.4 31 31 SW 7 11 30.19 1023 10 16.0934 0 0
7:52 pm 19:52 Mostly Clear 35 1.7 8 -13.3 32 32 WSW 3 6 30.21 1023 10 16.0934 0 0
8:52 pm 20:52 Clear 33 0.6 9 -12.8 36 36 S 3 6 30.21 1023 10 16.0934 0 0
9:52 pm 21:52 Clear 32 0 17 -8.3 54 54 Calm 30.21 1023 10 16.0934 0 0
10:52 pm 22:52 Clear 32 0 14 -10 47 47 Calm 30.22 1023 10 16.0934 0 0
11:52 pm 23:52 Partly Cloudy 31 -0.6 20 -6.7 64 64 NE 3 6 30.21 1023 10 16.0934 0 0

Powered by AerisWeather